Wetbulb
40.24 42.72 43.24 43.73 43.25 43.26 43.38 43.56 43.63 43.70 43.97 43.96 43.88 43.87 43.98 44.19 43.91 40.50 37.93 40.46 35.57 30.03 28.16 32.39 33.39 31.73 32.54 30.71 26.51 25.89 29.35 31.39 32.02 29.45 28.81 28.71 30.27 31.93 30.76 32.56 32.20 32.74 31.47 31.21 33.11 30.22 28.18 31.57 31.69 33.68 33.55 27.89 28.78 29.42
39.48 39.94 42.53 43.50 42.65 42.97 43.08 43.10 43.18 43.37 43.67 43.52 43.43 43.56 43.65 43.64 43.60 42.65 34.47 38.94 38.86 32.83 31.12 35.27 35.07 35.48 36.80 35.94 33.14 30.85 28.92 22.26 33.09 29.68 31.25 31.86 30.51 31.46 31.11 27.67 32.66 30.70 33.56 31.85 33.58 32.99 36.66 32.03 34.57 32.88 30.15 28.44 28.97 29.62
38.84 39.13 39.94 42.29 42.35 42.59 42.85 42.77 42.80 43.13 43.07 42.93 43.04 43.28 43.37 43.47 43.45 41.82 33.76 36.49 36.95 31.46 31.24 31.51 29.60 34.11 37.66 36.41 38.47 31.96 33.10 33.16 30.49 31.60 27.14 29.31 26.93 28.51 26.15 27.56 28.87 31.42 32.04 33.65 33.49 33.55 33.01 33.19 31.00 30.95 29.40 29.49 29.42 29.60
38.23 38.25 40.61 41.40 41.70 42.38 42.53 42.48 42.78 42.76 42.46 42.22 42.39 42.50 42.84 43.14 43.13 42.40 34.65 34.95 35.75 32.22 25.68 26.38 30.75 30.89 35.35 36.65 37.55 38.55 36.85 37.50 35.79 33.84 33.37 31.13 28.80 29.32 24.82 29.25 27.22 28.73 32.29 32.68 31.46 30.88 28.68 30.78 29.36 31.25 30.01 30.69 29.82 29.28
37.60 40.35 40.74 40.59 40.75 41.57 41.93 42.37 42.20 42.06 41.59 41.64 41.73 42.09 42.45 42.92 42.85 40.18 35.62 35.53 37.10 30.14 23.67 25.26 28.00 29.84 33.33 35.46 35.86 37.34 37.23 35.37 33.64 31.56 30.43 29.74 29.02 29.19 22.53 26.72 26.96 29.31 29.76 31.12 31.88 32.05 33.97 33.38 32.11 31.85 32.60 33.15 31.19 28.76
37.63 38.34 38.90 40.31 40.22 41.97 41.68 41.88 41.17 40.67 40.74 40.81 41.13 41.69 42.23 42.58 42.38 35.87 28.83 34.46 37.13 36.52 28.53 20.68 24.77 22.54 25.96 30.35 34.36 34.37 35.89 35.55 33.82 32.97 31.67 31.97 32.39 30.64 26.31 26.41 29.53 29.14 29.92 30.42 31.47 31.85 30.54 31.13 32.28 33.40 33.14 32.77 28.45 27.74
36.98 37.91 39.39 39.75 40.95 40.67 40.84 40.20 39.81 39.98 39.90 40.31 40.98 41.49 42.04 42.25 37.66 30.33 23.02 29.17 37.44 36.60 20.39 15.34 16.59 22.69 26.86 29.80 31.74 31.00 33.22 32.40 32.01 32.18 30.14 29.37 27.76 30.63 25.86 25.23 27.09 25.45 28.57 26.58 28.55 29.56 29.11 31.32 32.03 33.87 32.51 27.44 25.95 23.64
37.20 38.12 39.18 39.71 39.60 39.50 39.04 38.86 39.23 39.53 39.68 40.27 40.78 41.28 41.67 42.15 38.40 33.66 34.40 38.16 39.15 32.81 28.14 17.68 11.44 19.95 27.92 26.08 24.62 30.43 27.37 30.08 30.20 30.16 28.16 26.29 26.79 28.93 24.62 26.40 21.62 22.00 23.53 23.25 23.50 24.78 26.06 27.04 31.05 28.44 27.20 26.25 23.89 21.62
37.45 38.20 39.05 39.16 38.36 37.86 37.60 37.85 38.91 39.09 39.55 40.20 40.51 40.51 37.99 33.73 29.15 26.52 38.45 38.72 35.97 28.87 21.49 21.83 12.15 8.36 27.09 23.11 22.38 24.90 26.80 21.30 27.32 25.02 25.20 25.91 22.64 22.36 23.68 23.21 19.52 17.81 21.76 22.03 22.43 24.09 24.22 24.22 25.05 25.91 25.80 24.44 21.84 19.87
37.29 38.63 37.78 37.09 36.93 36.91 37.20 37.77 38.23 39.04 39.71 39.86 35.59 30.16 25.58 24.43 36.09 36.48 31.39 23.64 24.22 27.68 27.65 14.04 12.22 17.05 25.73 24.59 21.88 17.11 19.56 20.77 17.48 22.38 26.81 23.13 19.80 15.10 12.29 9.41 10.76 11.58 12.22 14.62 20.62 20.31 20.77 20.35 20.69 20.43 19.02 19.42 19.84 17.23
36.27 36.44 36.41 36.25 36.10 36.60 37.21 38.22 38.78 39.06 38.65 31.86 27.12 24.29 26.89 36.29 27.25 22.21 19.88 16.84 7.20 13.57 20.24 18.30 20.22 18.27 25.76 18.96 20.01 23.35 17.30 16.70 16.42 19.75 18.84 17.54 16.40 15.96 9.45 7.29 7.89 8.99 10.60 10.55 13.47 14.54 16.16 18.80 16.90 15.41 13.68 13.39 13.29 12.57
35.18 35.45 35.58 35.73 36.14 36.56 37.23 38.14 38.48 34.19 29.78 27.68 26.84 29.28 27.03 21.06 18.58 16.74 9.08 12.18 12.25 7.81 10.60 16.94 15.35 23.24 23.87 24.22 19.46 20.09 17.46 15.85 14.99 14.10 16.15 13.97 13.36 6.53 5.34 4.59 3.74 4.10 5.69 6.22 8.12 8.66 8.43 7.85 8.95 9.13 7.70 5.80 5.25 6.79
34.89 34.93 35.13 35.24 35.38 35.89 36.63 37.42 37.62 36.89 34.61 27.29 24.89 19.55 20.23 16.55 10.82 7.15 9.02 1.85 -3.25 0.94 12.28 15.26 17.90 22.33 23.20 25.46 22.72 19.54 14.60 13.61 13.74 13.83 13.18 10.95 1.04 -2.44 -3.13 -2.25 -2.62 -1.70 2.08 2.92 2.50 2.67 2.74 1.67 0.89 1.73 -0.02 -1.03 -0.82 -1.67
33.95 33.92 34.44 34.48 34.54 35.65 36.16 36.76 37.48 35.98 28.74 22.04 18.51 12.66 10.99 7.27 6.00 0.91 0.46 -1.00 5.04 10.37 10.95 7.30 10.43 18.62 24.65 20.97 21.88 15.77 16.02 14.88 11.04 9.07 7.36 -5.99 -8.39 -9.51 -7.63 -8.85 -11.70 -8.39 -6.04 -4.14 -3.79 -1.25 -1.85 -2.86 -4.99 -5.34 -5.28 -4.70 -3.82 -5.83
33.62 34.27 34.41 34.17 34.90 35.29 36.22 36.73 37.56 30.37 23.04 16.63 10.17 5.41 1.91 -2.85 5.39 4.15 -0.40 2.01 0.96 2.64 5.36 19.25 13.82 20.42 15.49 20.73 20.09 14.11 10.80 10.81 13.17 8.92 -9.31 -9.77 -9.49 -8.63 -9.18 -9.18 -9.12 -8.70 -8.06 -8.36 -6.95 -5.21 -5.19 -5.68 -7.03 -9.50 -9.69 -8.19 -7.88 -7.59
33.34 30.89 28.94 34.03 35.73 36.07 33.59 28.76 24.23 20.55 7.86 6.71 -3.74 -1.60 -11.08 -4.55 -9.74 -3.93 -4.26 0.03 0.85 -2.08 0.38 5.22 18.99 19.46 17.40 17.55 14.42 12.15 11.86 12.40 2.57 -17.12 -12.58 -9.30 -10.96 -11.74 -11.67 -9.82 -9.57 -9.43 -9.65 -9.40 -8.92 -7.77 -7.62 -8.62 -10.51 -13.28 -12.04 -11.79 -11.99 -10.89
28.67 16.16 31.35 33.50 30.27 28.68 28.56 18.39 15.22 7.70 4.94 -8.04 -17.76 -17.43 -15.05 -14.04 -9.79 -10.14 -11.18 -6.97 -2.46 -3.38 7.97 10.65 15.69 11.48 14.03 6.86 0.44 -12.22 -7.98 -17.39 -17.06 -14.44 -12.41 -11.59 -12.61 -13.17 -11.49 -10.50 -10.48 -10.20 -9.96 -10.01 -10.21 -10.42 -12.01 -11.78 -11.50 -10.44 -14.00 -18.57 -15.51 -16.87
19.63 21.44 32.23 30.46 21.89 18.50 11.39 13.30 8.58 2.91 -8.40 -4.68 -12.91 -16.38 -13.56 -12.33 -16.97 -17.79 -12.61 -7.97 -6.89 -6.56 -1.18 -3.45 -0.44 -6.42 -13.18 -2.88 -11.53 -15.20 -13.54 -12.40 -10.99 -11.26 -11.25 -11.51 -11.68 -10.34 -10.18 -11.21 -10.27 -9.94 -10.59 -10.91 -11.39 -11.25 -10.79 -11.22 -12.11 -15.45 -17.03 -20.11 -12.88 -15.31
25.73 28.07 30.77 29.21 22.90 11.74 7.75 6.97 7.59 -2.29 -6.19 -8.93 -6.13 -7.19 -12.48 -16.03 -11.38 -10.00 -10.67 -7.67 -6.09 -7.39 -7.83 -10.16 -16.43 -19.05 -19.34 -15.82 -16.20 -13.38 -12.37 -11.98 -13.59 -11.09 -10.50 -9.83 -8.38 -8.66 -8.58 -8.14 -8.58 -9.49 -9.55 -9.99 -10.38 -11.81 -12.97 -13.18 -12.85 -11.34 -11.26 -10.04 -11.75 -14.20
23.05 23.65 23.71 23.02 20.14 11.44 5.74 5.29 6.79 -2.06 -7.62 -5.17 -6.46 -10.58 -9.98 -13.32 -15.70 -20.72 -13.81 -11.80 -10.49 -14.78 -19.99 -21.68 -23.29 -21.55 -18.22 -15.68 -13.70 -13.70 -10.03 -7.37 -9.34 -11.41 -10.80 -8.94 -7.42 -7.59 -8.19 -8.40 -8.87 -8.52 -9.05 -9.25 -9.11 -8.06 -9.20 -10.93 -11.78 -11.49 -11.68 -10.66 -10.67 -15.44
13.25 13.96 14.79 10.34 5.50 4.41 1.29 1.74 1.45 0.89 -1.60 -5.01 -3.87 -4.36 -8.86 -9.92 -15.66 -17.31 -15.61 -12.24 -17.77 -20.85 -23.05 -18.50 -17.14 -17.59 -15.69 -13.03 -11.17 -12.11 -9.44 -6.40 -7.89 -8.81 -10.42 -11.33 -8.57 -8.56 -9.27 -9.29 -9.01 -9.46 -10.40 -10.82 -11.82 -12.50 -12.97 -14.61 -14.91 -13.96 -14.34 -16.22 -17.36 -18.63
4.84 11.00 -1.44 1.74 0.32 -3.81 -4.46 -3.16 -2.65 0.81 -4.22 -8.34 -6.99 -8.23 -12.36 -13.93 -15.90 -17.57 -12.49 -17.78 -20.06 -22.13 -21.76 -18.99 -15.37 -14.83 -14.28 -13.76 -12.56 -10.16 -8.30 -7.35 -7.30 -7.35 -6.94 -7.39 -9.97 -10.99 -12.00 -10.87 -11.68 -14.35 -14.90 -14.75 -14.04 -15.06 -15.64 -15.26 -15.40 -15.35 -16.26 -23.04 -19.00 -17.53
2.26 0.54 -7.73 -10.22 -9.46 -12.28 -14.26 -7.51 -12.72 -11.20 -12.55 -9.40 -8.79 -12.58 -14.34 -15.25 -14.07 -10.59 -20.09 -20.51 -21.69 -15.88 -18.17 -18.81 -14.73 -12.77 -13.75 -12.45 -12.05 -11.43 -9.23 -10.11 -11.99 -12.18 -12.36 -12.78 -12.79 -12.42 -13.29 -13.78 -11.55 -13.34 -15.24 -15.69 -13.95 -14.85 -15.69 -13.77 -14.86 -17.70 -18.88 -19.01 -19.44 -19.84
-2.85 -16.36 -22.34 -23.96 -21.66 -28.28 -22.49 -21.20 -15.27 -13.79 -10.78 -12.60 -13.41 -17.31 -18.43 -18.03 -11.61 -17.78 -23.70 -22.43 -18.88 -15.84 -17.36 -17.58 -19.73 -17.04 -13.01 -13.53 -16.25 -17.96 -15.68 -10.61 -12.22 -12.41 -11.24 -13.04 -16.02 -17.90 -16.61 -16.93 -16.47 -16.98 -15.74 -15.41 -15.92 -17.04 -17.98 -19.48 -17.94 -19.16 -20.47 -22.14 -26.77 -29.71
-19.42 -29.34 -26.27 -34.48 -26.94 -28.98 -29.89 -29.84 -26.71 -20.05 -19.55 -15.02 -16.71 -17.84 -17.76 -15.88 -21.98 -24.37 -25.09 -22.76 -20.41 -22.29 -19.40 -17.64 -17.07 -15.84 -18.26 -16.49 -15.10 -16.52 -15.90 -12.95 -13.50 -16.73 -15.30 -14.49 -16.38 -17.09 -18.36 -18.55 -19.84 -20.62 -19.66 -17.67 -20.61 -22.19 -23.91 -25.10 -24.71 -25.42 -29.00 -32.33 -30.79 -31.48
-34.31 -30.60 -33.62 -38.23 -32.40 -33.55 -33.63 -35.06 -34.24 -31.61 -24.27 -21.16 -21.56 -16.79 -17.03 -19.21 -24.48 -29.32 -28.27 -24.95 -24.23 -22.71 -22.27 -22.81 -21.06 -18.02 -18.84 -18.18 -17.87 -17.38 -18.44 -17.25 -11.01 -15.35 -17.46 -16.07 -13.45 -14.17 -16.39 -16.92 -18.52 -19.72 -23.71 -26.17 -28.58 -29.16 -26.02 -27.18 -32.68 -32.89 -30.23 -29.74 -27.71 -33.71
-33.49 -34.44 -29.09 -27.91 -30.15 -29.11 -30.19 -29.50 -28.40 -30.41 -31.98 -31.49 -29.18 -21.90 -20.91 -26.28 -30.41 -27.44 -19.12 -16.71 -20.10 -22.16 -18.47 -18.74 -17.68 -15.88 -17.01 -17.66 -17.71 -18.09 -17.92 -17.97 -16.47 -17.54 -18.83 -19.29 -19.66 -18.82 -17.23 -19.38 -21.24 -21.91 -26.34 -24.96 -29.47 -32.55 -30.38 -31.79 -32.37 -32.88 -33.86 -34.47 -36.16 -33.86
-28.98 -26.56 -32.04 -29.28 -32.44 -38.35 -39.86 -37.83 -36.02 -34.82 -31.89 -25.54 -23.96 -27.99 -28.26 -31.06 -29.20 -22.36 -17.53 -15.28 -17.42 -17.73 -19.17 -21.38 -19.52 -18.30 -18.57 -19.40 -19.84 -17.45 -18.01 -17.93 -17.91 -18.07 -18.32 -19.26 -21.40 -21.70 -22.64 -23.75 -22.48 -14.63 -22.08 -24.83 -25.24 -27.88 -37.41 -35.31 -34.44 -31.52 -30.76 -27.31 -24.97 -32.37
-24.92 -22.18 -26.04 -30.89 -32.64 -30.04 -29.67 -34.11 -37.12 -34.58 -25.18 -26.31 -25.26 -26.77 -28.56 -23.60 -25.28 -23.21 -18.33 -15.82 -16.18 -17.25 -21.15 -22.13 -21.36 -19.58 -18.93 -19.83 -20.71 -21.61 -20.40 -17.07 -16.58 -17.53 -18.74 -18.83 -19.99 -20.10 -24.67 -28.96 -32.87 -32.36 -34.24 -37.72 -23.41 -14.32 -19.30 -22.42 -22.31 -20.76 -21.99 -25.09 -24.79 -31.54
-24.34 -25.41 -29.23 -30.32 -31.82 -30.61 -27.79 -27.71 -29.13 -23.50 -19.72 -19.14 -19.08 -19.36 -21.12 -20.98 -19.25 -17.30 -18.51 -19.21 -19.21 -20.24 -22.35 -23.48 -25.09 -21.12 -20.79 -19.73 -19.94 -19.78 -23.35 -23.80 -21.67 -20.17 -23.18 -22.59 -23.99 -30.09 -36.85 -36.49 -34.18 -35.75 -36.78 -41.94 -30.34 -29.91 -22.55 -25.32 -26.89 -32.56 -30.15 -28.42 -28.94 -26.55
-20.99 -22.68 -23.12 -24.26 -27.21 -26.92 -25.92 -25.42 -23.09 -19.45 -19.50 -20.99 -20.44 -22.56 -23.85 -23.10 -17.78 -18.87 -19.73 -23.21 -23.73 -25.49 -26.57 -25.49 -27.55 -33.34 -28.89 -26.36 -28.74 -25.18 -22.00 -26.48 -30.50 -29.76 -33.09 -34.54 -35.29 -36.97 -36.18 -33.66 -32.98 -37.95 -39.95 -38.57 -36.61 -38.17 -32.32 -32.07 -34.91 -32.77 -30.41 -29.42 -28.33 -26.52
-25.83 -30.93 -25.74 -23.75 -24.76 -26.64 -28.85 -27.18 -25.96 -23.54 -23.55 -21.82 -24.13 -24.00 -24.74 -23.99 -22.60 -19.25 -20.39 -25.20 -26.08 -24.70 -23.54 -31.98 -34.86 -28.91 -29.69 -30.22 -35.12 -35.53 -24.72 -31.42 -32.00 -28.50 -30.31 -29.55 -32.03 -32.53 -32.32 -31.34 -32.73 -35.32 -34.94 -30.45 -31.01 -31.25 -31.03 -31.73 -29.45 -27.97 -26.93 -27.46 -26.69 -26.10
-37.34 -35.81 -38.34 -35.61 -31.93 -31.52 -32.85 -33.24 -28.71 -27.18 -27.32 -27.98 -28.57 -33.27 -36.00 -32.00 -24.30 -22.63 -24.99 -29.45 -26.94 -25.04 -26.39 -26.36 -26.68 -32.24 -30.17 -29.97 -29.50 -30.47 -27.46 -31.05 -32.14 -18.79 -13.75 -15.58 -17.22 -17.63 -20.34 -22.86 -25.91 -27.64 -27.78 -26.66 -25.57 -25.44 -26.98 -27.08 -26.69 -26.19 -26.07 -25.73 -25.33 -24.79
MSLP
1002.59 1002.26 1002.47 1002.96 1003.36 1003.98 1004.65 1005.07 1005.71 1006.53 1007.17 1007.83 1008.42 1009.17 1009.84 1010.37 1010.99 1012.01 1012.78 1013.51 1014.31 1013.78 1013.36 1013.10 1013.06 1012.95 1013.11 1013.51 1013.56 1012.82 1013.39 1012.96 1013.05 1011.82 1011.11 1010.12 1009.08 1008.06 1007.06 1006.17 1005.79 1005.89 1005.72 1005.67 1006.09 1006.16 1005.99 1005.54 1005.84 1005.71 1005.94 1006.22 1006.41 1006.14
1001.22 1001.38 1001.49 1001.56 1001.98 1002.77 1003.25 1003.82 1004.57 1005.36 1006.11 1006.88 1007.50 1008.21 1008.90 1009.55 1010.19 1010.92 1012.19 1012.81 1013.69 1014.18 1013.21 1012.80 1012.24 1011.87 1011.82 1011.90 1012.99 1012.15 1011.85 1011.73 1011.05 1010.65 1010.16 1009.72 1008.70 1007.81 1007.18 1006.30 1006.02 1006.52 1005.17 1005.01 1005.09 1005.22 1005.10 1005.89 1006.18 1005.33 1006.15 1006.75 1006.93 1006.79
999.67 999.98 1000.39 1000.03 1000.66 1001.48 1002.32 1002.71 1003.51 1004.32 1005.15 1005.76 1006.42 1007.19 1007.96 1008.67 1009.36 1010.13 1011.29 1012.00 1013.07 1013.29 1012.78 1012.87 1012.19 1011.33 1011.24 1011.14 1011.37 1012.14 1011.14 1010.97 1010.61 1010.45 1010.28 1009.34 1008.59 1007.91 1007.36 1006.59 1006.13 1005.98 1005.77 1006.03 1006.15 1005.58 1005.31 1005.50 1005.50 1005.29 1005.88 1006.22 1007.10 1007.01
998.14 998.68 998.55 998.68 999.71 1000.49 1001.15 1001.79 1002.57 1003.42 1004.13 1004.92 1005.63 1006.35 1007.09 1007.80 1008.53 1009.27 1010.42 1011.12 1012.06 1012.60 1012.39 1011.60 1011.28 1011.04 1010.06 1010.29 1010.65 1010.41 1010.61 1010.72 1010.32 1010.33 1009.76 1009.09 1008.62 1007.75 1007.58 1006.91 1006.57 1005.92 1005.74 1005.71 1005.34 1004.49 1004.92 1005.34 1006.07 1006.53 1007.18 1007.18 1007.01 1007.25
996.80 996.25 997.12 997.82 998.69 999.54 1000.31 1001.07 1001.99 1002.76 1003.29 1004.07 1004.96 1005.65 1006.30 1007.02 1007.82 1008.67 1009.71 1010.35 1010.95 1011.92 1011.34 1011.28 1011.32 1010.36 1009.83 1010.01 1010.00 1010.08 1009.77 1010.22 1009.88 1009.52 1008.68 1007.77 1007.78 1008.07 1007.55 1007.45 1006.71 1006.17 1005.74 1006.04 1004.84 1004.09 1003.96 1003.83 1004.36 1005.56 1006.49 1007.05 1006.94 1007.33
995.36 995.47 996.34 997.07 997.83 998.78 999.69 1000.52 1001.43 1001.98 1002.78 1003.51 1004.22 1004.97 1005.59 1006.37 1007.34 1008.66 1009.66 1009.93 1010.00 1010.74 1011.49 1011.21 1010.26 1010.00 1009.69 1009.68 1009.43 1009.16 1009.00 1009.23 1009.05 1008.49 1008.15 1007.59 1006.97 1007.33 1006.93 1006.92 1006.15 1005.98 1005.90 1005.73 1005.16 1004.70 1004.60 1004.72 1005.37 1005.50 1006.21 1006.92 1007.33 1007.83
994.99 995.39 995.99 996.52 997.35 998.30 999.38 1000.22 1000.79 1001.48 1002.30 1003.05 1003.68 1004.27 1004.96 1005.76 1006.98 1007.65 1008.26 1008.16 1008.71 1010.00 1011.12 1011.54 1010.43 1009.28 1009.22 1009.42 1009.28 1009.07 1009.05 1008.72 1008.91 1008.11 1007.14 1006.92 1007.12 1007.20 1007.04 1006.70 1006.48 1006.77 1006.73 1006.36 1005.99 1005.71 1005.95 1005.89 1006.04 1006.32 1006.59 1007.25 1007.98 1008.91
994.70 995.25 995.78 996.24 997.51 998.25 999.24 999.85 1000.45 1001.13 1002.00 1002.66 1003.20 1003.77 1004.63 1005.64 1006.54 1007.13 1007.19 1007.75 1008.73 1009.76 1010.25 1010.54 1009.82 1009.91 1008.91 1008.97 1008.96 1008.53 1008.38 1008.24 1007.72 1007.00 1007.50 1007.08 1006.89 1006.80 1006.83 1006.55 1006.81 1007.02 1007.10 1007.08 1006.97 1006.92 1006.76 1006.17 1006.26 1007.22 1007.58 1007.82 1009.01 1009.96
994.58 995.02 995.53 996.52 997.30 997.85 998.61 999.41 1000.12 1000.84 1001.77 1002.35 1003.04 1003.99 1004.93 1005.34 1005.79 1006.70 1006.83 1007.42 1008.37 1009.49 1009.56 1009.12 1009.59 1009.55 1008.94 1008.90 1008.62 1008.46 1007.83 1007.68 1006.90 1006.74 1007.09 1007.23 1007.11 1006.76 1006.88 1007.20 1007.52 1008.11 1008.52 1008.55 1008.20 1008.07 1007.91 1007.77 1007.72 1008.13 1008.56 1009.40 1010.26 1011.38
995.16 994.91 995.89 996.50 997.26 997.95 998.60 999.32 999.90 1000.67 1001.49 1002.22 1003.63 1004.16 1004.81 1005.44 1005.53 1006.11 1007.29 1008.29 1008.97 1009.04 1009.11 1008.88 1008.87 1009.00 1008.77 1008.66 1008.64 1008.86 1007.78 1007.22 1007.08 1006.48 1006.87 1006.96 1007.08 1007.29 1008.08 1008.68 1009.39 1009.87 1010.33 1010.23 1009.78 1009.80 1009.46 1009.30 1009.39 1009.68 1010.29 1010.75 1011.46 1012.44
995.44 995.81 996.33 996.84 997.53 998.19 998.73 999.09 999.74 1000.54 1001.43 1002.26 1003.43 1004.75 1005.54 1005.37 1006.16 1007.18 1008.12 1008.87 1009.38 1009.34 1008.47 1007.60 1007.82 1007.77 1007.75 1007.91 1007.97 1008.03 1006.83 1006.50 1006.46 1007.08 1007.78 1007.72 1008.04 1008.02 1009.08 1010.38 1011.36 1011.73 1011.94 1011.98 1011.49 1011.21 1010.81 1010.62 1011.05 1011.70 1012.41 1012.91 1013.58 1013.99
996.11 996.49 996.95 997.48 997.86 998.32 998.74 999.38 999.91 1000.86 1001.46 1002.22 1003.34 1004.62 1005.61 1006.34 1007.02 1008.16 1008.93 1009.28 1009.59 1008.78 1007.72 1007.05 1006.68 1006.31 1006.63 1006.61 1006.82 1007.04 1006.29 1006.76 1006.88 1007.54 1009.00 1009.62 1009.13 1010.43 1011.60 1013.06 1013.00 1013.43 1013.67 1013.61 1013.38 1013.16 1013.05 1013.20 1013.54 1014.14 1014.78 1015.07 1016.07 1016.22
996.63 997.01 997.42 997.71 998.07 998.40 998.79 999.39 1000.20 1000.87 1001.73 1002.93 1004.12 1005.54 1006.21 1007.70 1008.55 1009.46 1010.09 1010.62 1010.01 1008.58 1007.95 1007.20 1006.55 1005.86 1006.18 1005.88 1005.90 1006.17 1006.54 1007.01 1007.62 1008.80 1010.23 1010.66 1012.34 1013.85 1014.84 1015.39 1015.54 1015.53 1015.48 1015.36 1015.56 1015.66 1015.71 1015.92 1016.15 1016.37 1016.87 1017.57 1017.82 1018.10
997.11 997.37 997.67 998.04 998.32 998.56 998.84 999.26 1000.07 1001.21 1002.53 1004.07 1005.44 1007.14 1007.95 1009.43 1009.48 1009.89 1010.63 1010.64 1010.22 1009.80 1009.36 1008.20 1006.59 1005.47 1005.09 1005.08 1004.98 1005.86 1006.86 1007.94 1009.53 1011.28 1012.27 1013.74 1015.56 1016.61 1017.05 1017.61 1017.63 1017.61 1017.26 1017.24 1017.43 1017.12 1017.47 1017.79 1018.34 1018.81 1018.99 1019.24 1019.21 1019.79
997.49 997.76 998.03 998.37 998.35 998.52 998.88 999.27 1000.20 1001.67 1003.25 1005.18 1006.28 1008.39 1009.95 1010.30 1010.79 1011.43 1011.85 1011.88 1012.07 1011.58 1010.71 1008.35 1006.85 1005.62 1005.16 1005.18 1005.11 1006.66 1008.60 1010.21 1011.64 1013.21 1014.89 1016.73 1017.98 1018.23 1018.70 1019.10 1019.19 1019.04 1018.91 1018.82 1018.89 1018.97 1019.12 1019.52 1020.10 1020.75 1021.24 1021.14 1021.00 1021.54
998.22 998.64 999.15 998.89 998.95 999.12 999.56 999.96 1000.64 1002.90 1005.77 1007.39 1009.19 1011.17 1011.96 1012.70 1013.59 1014.03 1014.30 1013.99 1013.69 1012.95 1011.74 1009.89 1007.26 1005.96 1005.94 1005.97 1007.27 1008.50 1010.16 1012.90 1014.55 1016.87 1018.30 1018.97 1019.72 1020.51 1020.40 1020.09 1020.12 1020.14 1020.12 1020.24 1020.39 1020.49 1020.82 1021.33 1021.91 1022.47 1023.01 1022.89 1023.25 1023.41
998.98 1000.17 1000.09 999.67 1000.10 1000.35 1000.43 1001.57 1003.48 1006.00 1008.49 1010.95 1013.64 1013.95 1014.73 1015.44 1016.34 1016.90 1016.81 1016.39 1015.85 1014.53 1012.29 1010.60 1008.95 1008.47 1008.19 1008.93 1011.63 1014.26 1015.98 1017.78 1019.17 1020.13 1020.72 1021.19 1021.44 1021.57 1021.20 1021.12 1021.03 1021.04 1021.19 1021.42 1021.69 1022.12 1022.59 1023.09 1023.28 1023.77 1024.50 1025.37 1025.16 1025.36
1000.58 1000.37 1000.32 1000.56 1000.91 1001.56 1003.33 1004.53 1006.35 1008.69 1011.77 1013.53 1014.83 1016.13 1016.82 1017.30 1018.15 1018.57 1018.64 1017.91 1016.98 1015.55 1014.14 1013.99 1013.37 1013.37 1014.66 1015.43 1017.09 1018.52 1019.43 1020.44 1021.06 1021.48 1021.97 1022.13 1022.17 1022.36 1022.26 1022.06 1021.85 1021.91 1022.19 1022.61 1023.00 1023.43 1023.70 1024.15 1024.74 1025.52 1025.69 1026.04 1026.02 1026.34
1001.38 1001.15 1001.19 1001.46 1001.72 1003.49 1006.18 1007.78 1008.45 1010.97 1013.43 1014.69 1015.91 1016.99 1017.95 1018.73 1019.40 1019.74 1019.29 1018.40 1017.90 1017.68 1017.26 1017.58 1018.28 1019.64 1020.46 1020.95 1021.41 1021.52 1021.79 1022.02 1022.27 1022.60 1022.90 1022.88 1022.85 1023.09 1023.02 1022.74 1022.78 1022.95 1023.18 1023.55 1023.93 1024.50 1025.06 1025.27 1025.64 1025.86 1026.10 1026.21 1026.55 1027.13
1002.69 1002.83 1002.72 1002.66 1002.60 1005.35 1008.23 1009.73 1010.00 1012.03 1014.36 1015.65 1016.51 1017.45 1018.35 1019.35 1019.96 1020.21 1020.06 1019.55 1019.12 1019.71 1021.09 1022.42 1023.89 1024.05 1023.94 1024.06 1023.97 1023.59 1023.07 1023.01 1022.94 1023.15 1023.76 1023.77 1023.68 1023.75 1023.63 1023.47 1023.82 1024.16 1024.44 1024.77 1025.05 1025.38 1025.75 1026.21 1026.59 1026.72 1026.77 1026.86 1027.03 1027.68
1003.61 1004.37 1004.27 1003.99 1006.12 1007.98 1010.69 1011.87 1012.62 1013.79 1014.98 1016.18 1017.11 1017.78 1018.88 1019.69 1020.53 1021.01 1021.19 1021.24 1021.64 1024.27 1025.50 1025.66 1025.73 1025.55 1025.42 1025.22 1024.76 1024.33 1023.98 1023.53 1023.54 1023.61 1023.93 1024.13 1024.23 1024.30 1024.52 1024.61 1024.82 1025.16 1025.45 1025.99 1026.35 1026.78 1027.04 1027.54 1027.86 1027.84 1027.80 1028.03 1028.09 1028.25
1006.18 1005.99 1006.74 1007.31 1009.13 1011.18 1013.04 1014.17 1014.54 1014.98 1015.91 1017.06 1017.76 1018.82 1019.89 1020.95 1021.87 1022.67 1022.81 1023.18 1025.72 1027.13 1027.11 1026.84 1026.30 1025.96 1025.80 1025.60 1025.21 1024.70 1024.42 1024.27 1024.15 1024.12 1024.50 1024.70 1025.13 1025.47 1025.54 1025.86 1025.81 1026.66 1027.07 1027.41 1027.71 1028.05 1028.38 1028.61 1028.66 1028.69 1028.70 1028.91 1028.83 1028.94
1007.59 1008.16 1010.75 1012.15 1013.00 1014.83 1017.07 1016.14 1016.38 1016.89 1017.53 1018.47 1019.09 1020.15 1021.46 1022.31 1023.03 1023.46 1024.90 1026.60 1027.59 1027.80 1027.72 1027.32 1026.77 1026.47 1026.22 1025.97 1025.55 1025.18 1025.09 1025.13 1025.15 1025.39 1025.63 1026.11 1026.55 1026.91 1026.75 1027.15 1027.45 1027.82 1028.19 1028.68 1028.90 1029.12 1029.26 1029.42 1029.47 1029.43 1029.58 1029.71 1029.58 1029.71
1010.56 1014.11 1016.83 1018.42 1019.19 1020.54 1020.17 1019.86 1019.42 1019.44 1019.57 1020.11 1020.84 1022.07 1023.04 1023.52 1023.92 1024.98 1026.86 1027.85 1028.28 1028.16 1027.94 1027.69 1027.24 1027.13 1026.88 1026.83 1026.70 1026.76 1026.77 1026.30 1026.21 1026.46 1026.85 1027.17 1027.66 1028.27 1028.51 1028.74 1029.02 1029.23 1029.31 1029.57 1029.84 1030.10 1030.40 1030.34 1030.20 1030.19 1030.17 1030.19 1030.38 1030.80
1014.56 1022.08 1022.57 1023.84 1023.83 1023.68 1024.17 1023.94 1023.34 1022.33 1022.71 1022.50 1022.79 1023.49 1024.03 1024.28 1025.40 1026.90 1028.11 1028.74 1028.78 1028.79 1028.66 1028.22 1027.94 1027.85 1027.84 1027.89 1027.87 1027.94 1027.70 1027.50 1027.42 1027.70 1028.27 1028.53 1028.93 1029.19 1029.47 1029.74 1030.13 1030.59 1030.48 1030.38 1030.85 1031.00 1031.06 1030.87 1030.81 1030.86 1031.01 1031.23 1031.46 1031.44
1022.53 1026.15 1026.71 1027.34 1027.48 1027.41 1027.76 1027.31 1026.84 1026.27 1025.10 1024.86 1025.05 1024.91 1024.95 1025.53 1026.91 1028.56 1029.10 1029.29 1029.48 1029.60 1029.60 1029.45 1029.08 1028.82 1028.83 1028.86 1029.06 1029.01 1029.00 1028.59 1028.17 1028.63 1029.40 1029.39 1029.46 1029.58 1029.66 1030.00 1030.46 1030.96 1031.10 1031.31 1031.49 1031.58 1031.63 1031.71 1031.71 1031.66 1031.58 1031.52 1031.61 1031.78
1026.64 1028.09 1028.41 1028.61 1028.92 1029.06 1029.27 1029.06 1028.47 1028.07 1027.57 1027.39 1027.09 1026.37 1026.38 1027.35 1028.67 1029.34 1029.21 1029.39 1029.76 1029.98 1029.95 1029.85 1029.46 1029.37 1029.58 1029.64 1029.75 1029.85 1029.63 1029.29 1029.04 1029.55 1030.32 1030.43 1030.21 1030.22 1030.04 1030.44 1030.91 1031.25 1031.39 1031.55 1031.59 1031.82 1031.82 1031.82 1031.80 1031.68 1031.65 1031.57 1031.70 1031.77
1028.15 1028.77 1029.38 1029.85 1030.11 1030.37 1030.70 1030.72 1030.58 1030.34 1029.50 1028.89 1028.29 1028.21 1028.47 1029.16 1029.80 1029.84 1029.56 1029.68 1030.00 1030.22 1030.41 1030.46 1030.41 1030.35 1030.37 1030.35 1030.27 1030.21 1030.24 1030.30 1030.36 1030.48 1030.61 1030.56 1030.58 1030.92 1031.05 1031.20 1031.43 1030.55 1031.40 1031.61 1031.36 1031.19 1031.29 1031.57 1031.58 1031.40 1031.32 1031.19 1030.93 1030.60
1028.99 1029.35 1029.58 1030.46 1030.65 1031.22 1031.73 1031.96 1031.89 1031.17 1030.32 1029.69 1029.22 1029.42 1029.86 1030.14 1030.43 1030.32 1030.19 1030.16 1030.23 1030.41 1030.70 1030.88 1030.98 1030.85 1030.92 1030.91 1030.86 1030.94 1030.85 1030.67 1030.59 1030.48 1030.73 1031.15 1031.48 1031.50 1031.68 1031.79 1031.82 1032.12 1032.49 1031.94 1031.36 1030.13 1029.80 1030.10 1030.24 1030.21 1030.22 1030.30 1030.01 1029.71
1030.01 1029.79 1030.12 1030.92 1031.67 1032.35 1032.30 1031.98 1031.59 1030.89 1030.22 1029.87 1029.75 1029.98 1030.31 1030.52 1030.56 1030.60 1030.67 1030.67 1030.78 1030.99 1031.35 1031.47 1031.51 1031.21 1031.41 1031.38 1031.15 1031.10 1031.15 1031.19 1031.17 1031.43 1031.72 1031.98 1032.00 1031.79 1031.80 1031.88 1032.02 1032.20 1032.42 1031.86 1031.06 1030.35 1029.99 1029.44 1029.81 1030.05 1029.94 1029.69 1029.39 1028.98
1031.06 1030.52 1031.13 1031.95 1032.73 1032.86 1032.72 1032.24 1031.44 1030.74 1030.31 1030.27 1030.21 1030.59 1031.16 1031.14 1030.64 1030.69 1030.83 1031.10 1031.28 1031.55 1031.84 1031.91 1032.07 1032.06 1032.11 1031.92 1031.83 1031.60 1031.55 1031.53 1031.62 1031.61 1031.62 1031.61 1031.70 1031.76 1031.63 1031.40 1031.31 1031.59 1031.56 1031.07 1030.76 1030.67 1030.44 1030.17 1029.92 1029.60 1029.25 1028.89 1028.48 1028.25
1032.99 1033.55 1033.61 1033.67 1033.86 1033.56 1033.13 1032.76 1032.10 1031.52 1031.27 1031.17 1031.63 1031.60 1031.76 1031.81 1031.37 1030.72 1030.81 1031.45 1031.78 1031.76 1031.67 1032.00 1032.38 1032.10 1031.79 1031.60 1031.50 1031.40 1031.32 1031.33 1031.41 1031.35 1031.22 1030.94 1030.68 1030.75 1030.59 1030.49 1030.58 1030.96 1030.98 1030.52 1030.10 1029.80 1029.53 1029.30 1029.10 1028.84 1028.48 1027.99 1027.50 1027.02
1035.60 1035.39 1035.53 1035.74 1035.43 1035.12 1034.92 1034.55 1033.56 1032.77 1032.35 1032.54 1032.95 1033.38 1033.39 1033.34 1032.28 1031.17 1030.74 1030.92 1030.76 1030.98 1030.93 1031.27 1031.31 1031.26 1031.24 1031.16 1031.04 1030.80 1030.90 1030.86 1030.75 1029.89 1029.19 1029.24 1029.22 1029.04 1028.95 1028.99 1029.13 1029.24 1029.13 1028.97 1028.78 1028.62 1028.49 1028.31 1028.05 1027.68 1027.27 1026.76 1026.12 1025.49
Wind_Speed
26 30 28 33 30 29 30 30 27 26 27 27 25 25 24 25 23 11 4 9 6 3 3 7 7 9 4 5 13 5 2 4 3 9 7 5 6 5 5 6 7 15 11 17 15 16 13 5 2 12 5 1 3 1
31 28 31 31 29 30 30 30 29 27 26 26 24 24 24 25 24 18 5 7 7 6 3 3 9 9 11 14 5 4 2 3 8 3 5 2 4 3 1 4 3 6 6 1 7 2 4 0 6 3 6 2 5 4
32 28 34 32 29 27 29 28 26 26 27 26 24 25 25 25 24 19 4 5 4 4 5 5 11 11 12 14 11 7 4 5 4 5 4 4 8 2 13 17 16 9 5 5 1 6 8 11 4 4 6 6 6 5
29 31 36 26 24 28 29 27 26 26 25 22 21 22 23 25 24 21 5 4 5 1 5 5 3 6 3 6 11 13 13 7 2 2 9 8 7 4 4 6 6 5 9 8 6 4 1 7 5 5 3 4 5 2
30 31 29 24 23 26 24 26 24 26 23 21 20 21 23 25 23 9 3 5 7 6 3 3 3 8 6 8 11 11 11 14 4 4 5 7 3 1 2 0 4 5 7 6 8 3 5 3 12 12 11 7 6 6
17 14 17 23 21 24 23 23 24 22 20 19 18 21 23 23 21 4 2 3 7 6 3 4 3 3 2 5 9 11 10 8 5 6 6 5 6 4 5 5 5 4 4 2 4 0 1 3 6 10 9 7 5 6
13 14 18 19 19 22 21 21 21 19 17 18 19 20 22 23 9 5 7 5 11 6 2 3 5 5 5 4 3 3 7 6 5 5 4 4 3 7 4 9 6 7 7 2 3 3 3 4 5 7 8 7 8 6
15 17 18 19 22 19 19 20 19 19 17 18 18 19 19 20 12 6 4 2 8 3 4 4 6 2 4 5 5 4 5 6 5 3 2 4 2 3 5 6 4 1 2 1 3 2 4 4 7 6 7 10 10 8
14 18 19 20 21 18 14 16 18 18 18 18 17 15 5 4 3 3 9 6 3 4 3 2 4 6 3 2 2 2 2 3 1 2 4 5 4 7 8 6 9 5 2 1 2 3 5 4 6 8 7 9 10 7
12 17 19 17 14 13 13 16 19 20 21 20 7 3 3 3 6 9 3 2 1 5 4 4 1 4 2 1 3 2 2 4 4 5 2 5 5 1 3 4 6 5 4 3 4 3 4 5 4 4 5 7 9 8
11 13 14 13 11 12 13 16 18 20 19 2 3 3 1 6 4 2 4 4 2 3 5 6 11 9 3 5 5 5 4 2 4 3 3 3 4 4 8 7 6 5 4 4 3 4 5 6 6 9 7 8 7 7
11 11 11 11 11 11 15 18 19 6 3 7 6 6 3 3 2 5 4 0 4 8 3 7 5 9 4 4 4 4 3 1 6 4 2 4 3 6 7 5 7 6 5 6 7 8 9 11 9 8 7 8 5 6
9 9 11 10 10 11 14 17 18 18 13 4 4 3 4 1 3 6 6 5 2 3 2 3 4 5 2 4 4 4 5 5 3 2 4 5 3 5 5 4 6 6 4 5 7 7 8 9 10 8 8 6 6 7
7 6 8 8 6 11 12 16 21 18 5 3 5 6 6 3 5 6 5 5 3 3 6 3 2 5 4 5 4 6 2 4 3 3 8 2 2 2 4 3 2 4 6 6 6 8 10 10 11 9 9 6 7 9
7 11 10 8 8 9 12 15 23 4 3 4 5 6 4 2 2 3 1 2 4 3 4 3 2 3 3 4 3 4 5 4 6 6 1 3 4 4 4 3 4 4 5 6 5 7 10 10 11 11 9 8 9 9
18 14 6 8 11 14 16 10 8 4 5 5 8 5 2 4 3 4 3 2 5 7 5 4 5 5 7 5 4 3 9 5 2 3 4 4 4 3 2 4 5 5 6 7 7 8 10 10 10 8 9 11 10 10
14 2 8 19 18 19 20 7 4 8 5 6 3 3 4 4 4 2 3 4 7 4 2 3 4 2 3 4 5 4 2 2 2 2 3 4 2 2 3 5 6 7 8 9 9 9 8 6 6 10 13 6 8 7
3 5 3 13 7 7 5 7 5 6 8 4 4 3 3 3 3 2 3 4 4 4 4 3 4 8 5 3 2 2 2 1 2 3 3 3 5 4 3 6 7 8 9 9 9 8 8 9 10 6 5 2 7 6
14 13 17 14 9 6 5 6 4 6 4 2 4 3 3 3 3 3 4 5 2 3 3 4 8 4 3 2 2 2 2 1 1 3 3 4 5 5 6 8 8 9 9 8 9 7 6 7 4 4 3 4 6 3
17 22 17 19 10 5 6 4 3 6 3 2 3 3 3 3 1 2 6 7 4 4 8 7 3 1 2 2 3 3 4 1 2 4 4 4 5 6 7 7 6 7 7 7 7 7 6 6 5 4 4 4 6 4
10 10 15 7 5 7 6 3 4 3 3 4 1 2 3 2 3 6 6 6 6 6 3 2 1 1 2 2 3 2 3 2 0 1 2 3 4 5 5 6 6 6 6 5 6 6 7 5 3 3 4 5 4 3
3 13 5 9 6 5 6 6 3 2 4 2 3 3 4 3 4 4 3 8 5 2 1 2 3 2 2 2 3 3 3 5 6 7 7 5 4 4 6 5 6 6 6 5 5 5 5 3 3 3 5 2 4 4
8 8 7 10 8 9 2 5 6 5 5 3 2 4 4 3 2 1 5 3 1 1 2 2 3 3 3 4 4 8 8 6 6 6 6 6 6 5 6 6 4 5 5 4 3 4 4 5 5 4 2 3 3 4
13 11 10 8 9 3 4 7 4 4 3 4 4 3 3 2 1 4 4 1 2 3 4 4 2 1 2 5 5 4 4 4 6 7 5 5 6 6 5 5 5 4 4 3 4 4 3 3 4 3 3 4 5 3
15 13 8 10 6 7 8 6 7 5 4 4 3 3 2 2 3 4 2 1 3 3 4 3 3 4 3 2 3 4 6 4 4 6 5 5 5 4 5 4 5 4 2 3 3 2 2 3 4 4 4 3 3 4
13 5 6 4 5 6 3 4 5 3 3 3 4 2 2 3 4 1 2 1 1 1 2 3 2 2 3 3 2 3 4 4 3 4 3 3 2 1 3 3 2 2 3 2 2 2 3 2 2 4 4 4 4 3
9 5 3 1 2 2 4 3 2 4 5 4 3 4 2 4 2 2 1 2 1 1 2 2 3 3 2 3 3 2 3 4 5 5 2 2 3 3 2 2 2 1 0 0 1 2 0 2 2 2 4 3 4 4
2 4 5 5 4 2 4 4 5 4 3 3 1 4 3 3 3 1 2 2 2 2 3 2 3 3 2 2 2 2 3 3 4 3 3 3 3 3 3 3 2 2 1 1 2 2 3 3 4 5 5 7 7 3
4 3 3 5 4 5 4 2 2 3 2 1 1 2 1 1 1 1 1 1 1 1 2 1 2 1 0 1 1 1 1 2 1 2 3 2 3 2 2 1 2 2 2 2 7 7 8 8 8 6 6 5 6 4
5 1 4 3 5 5 3 1 3 2 2 1 1 2 2 1 1 1 0 0 1 2 1 1 1 1 1 1 1 1 0 1 2 1 2 3 4 2 2 3 3 3 3 3 4 4 7 5 6 4 4 5 5 6
4 3 4 4 3 2 3 4 3 2 2 3 4 3 1 2 2 1 1 1 2 2 1 1 1 1 2 2 1 0 2 2 4 5 4 3 3 4 5 4 4 3 1 2 2 2 4 3 3 5 7 9 10 10
5 5 3 3 1 2 4 4 3 3 4 3 3 2 2 1 1 2 4 4 2 3 4 3 2 4 5 3 2 3 5 2 4 5 8 5 5 5 4 3 3 3 4 6 5 4 4 6 6 8 9 12 13 13
2 2 2 2 4 5 4 3 5 3 3 3 2 2 1 1 3 4 2 3 4 4 5 5 5 4 5 5 5 4 6 5 6 9 9 10 11 10 6 6 6 5 6 5 6 6 8 10 10 12 13 14 15 16
Wind_Direction
268 278 244 234 237 232 229 229 227 230 224 221 218 220 218 218 217 202 176 171 187 267 235 200 198 215 225 225 234 235 116 195 222 220 227 221 229 242 236 199 184 211 204 217 221 231 233 198 91 168 200 176 180 193
261 256 260 238 229 233 233 229 225 226 219 221 219 220 219 219 216 208 197 164 182 223 267 264 233 224 208 211 234 225 247 199 220 211 203 242 222 194 333 275 13 210 207 246 221 200 344 187 265 167 160 168 202 179
255 265 270 223 228 228 234 227 221 215 213 216 214 215 217 216 214 207 154 148 166 246 270 209 231 233 210 216 202 252 217 226 236 198 221 247 233 201 245 253 268 223 180 220 154 214 226 230 268 203 177 175 190 187
249 269 248 219 225 228 227 222 214 209 210 212 218 218 217 213 211 200 165 163 182 210 260 264 334 242 223 191 210 213 241 275 222 190 234 241 241 172 241 274 238 248 148 195 260 252 233 222 193 167 192 166 149 140
274 231 217 216 219 221 215 209 205 208 206 204 212 217 214 210 207 195 150 174 180 189 256 262 217 240 213 190 213 219 214 235 226 214 244 221 183 150 208 302 243 189 191 197 234 285 254 221 190 167 167 189 163 156
256 206 214 214 198 207 198 198 201 199 204 209 212 214 211 201 198 119 168 218 187 182 248 254 283 294 229 210 231 227 224 228 236 241 238 232 175 216 182 230 266 235 255 242 270 287 77 6 176 152 151 153 116 103
235 226 204 194 200 182 188 198 197 194 202 208 212 211 207 193 169 150 177 203 179 142 122 287 271 239 167 170 200 215 228 219 220 227 239 194 213 186 203 219 198 202 204 271 345 34 25 216 177 161 118 103 90 79
220 214 196 173 183 175 187 198 199 194 199 206 207 199 185 200 162 201 230 159 117 167 185 213 265 292 183 186 220 189 198 204 204 198 284 197 158 211 237 223 170 142 99 66 350 325 303 113 117 94 115 114 91 74
211 202 173 174 175 177 184 199 202 191 196 187 168 159 165 180 123 201 165 231 145 157 249 238 150 237 179 240 329 225 223 213 124 172 222 169 198 218 207 205 172 154 185 141 22 81 61 70 109 120 116 100 100 90
136 155 166 156 165 176 193 201 196 189 178 158 117 132 130 212 139 107 84 100 27 197 228 218 127 197 174 104 225 223 253 209 180 220 174 226 235 36 171 106 74 67 29 332 144 149 129 119 130 90 86 86 102 107
147 143 148 153 164 184 189 175 172 162 156 137 112 117 126 153 67 94 180 169 222 220 217 218 200 226 206 186 198 250 206 191 154 179 198 229 251 209 137 115 86 58 44 17 39 42 40 70 110 120 96 75 87 101
126 136 143 154 159 173 171 161 172 125 131 149 124 103 105 78 81 166 193 355 171 216 237 165 198 191 181 159 150 225 209 190 212 119 193 244 260 71 106 107 75 44 38 55 38 59 54 57 52 76 68 71 55 92
139 154 160 161 170 175 173 174 159 128 107 56 64 95 122 154 153 174 194 270 306 288 215 171 172 153 143 212 190 167 206 212 103 117 215 239 56 56 49 49 53 26 54 76 70 69 76 73 57 56 77 56 62 66
146 155 161 176 191 193 193 187 156 131 94 132 156 143 172 185 224 187 177 191 264 348 343 335 168 191 169 208 166 175 136 164 188 167 232 27 3 358 41 26 25 31 41 65 65 74 76 77 71 55 50 40 77 64
114 108 107 121 138 158 185 185 147 78 106 154 116 170 182 210 39 79 43 2 14 327 310 251 234 159 209 239 203 135 125 231 204 221 33 -0 350 25 46 54 65 67 62 57 52 79 80 80 79 66 34 49 62 71
100 67 36 82 81 86 85 74 47 88 60 49 31 81 352 70 355 28 20 350 8 337 290 229 235 182 202 174 220 227 132 190 331 358 331 342 355 352 25 71 77 81 76 75 63 74 83 79 79 74 58 50 53 64
77 58 352 90 73 58 45 68 65 48 61 50 11 14 68 76 87 50 359 342 321 283 300 295 256 90 322 105 105 16 351 322 292 329 340 1 23 11 44 80 78 79 80 79 85 82 82 75 68 81 78 27 65 63
43 279 187 95 77 48 38 31 69 67 63 41 64 329 44 52 68 23 310 298 329 337 351 47 329 44 36 2 84 15 77 37 45 49 32 13 25 32 55 85 81 86 87 82 79 77 79 86 88 90 100 110 84 62
56 46 65 65 75 84 63 30 42 82 70 105 95 78 88 100 102 46 345 330 70 36 47 31 55 51 58 33 342 3 15 44 45 35 34 40 55 68 81 78 75 74 78 81 83 83 78 66 82 91 91 92 89 54
61 41 40 44 51 76 72 37 55 79 76 108 58 41 79 89 307 11 22 11 27 45 42 44 61 338 331 321 324 318 329 77 98 91 77 60 55 59 59 79 81 87 83 78 76 83 85 75 46 50 56 65 88 71
34 359 17 49 52 54 72 16 67 70 99 79 152 46 57 43 30 14 15 357 62 35 50 6 313 229 265 264 271 255 297 287 166 138 127 108 75 81 70 62 62 61 70 65 72 65 58 64 54 49 69 68 70 74
358 18 50 8 73 50 69 18 64 83 68 114 71 42 38 27 17 19 337 38 57 9 331 305 317 335 353 15 348 4 6 52 62 76 65 74 88 69 62 52 74 70 59 58 66 77 73 65 66 64 75 58 55 64
28 34 48 13 70 44 320 350 66 11 72 68 54 53 36 37 27 61 68 58 80 333 265 269 326 358 14 359 31 39 38 66 72 69 72 70 63 58 68 59 57 91 91 65 59 76 77 62 61 63 53 58 66 53
34 46 36 41 28 33 341 23 13 44 57 54 57 71 36 15 40 56 70 41 332 333 348 343 13 5 33 25 40 24 5 54 80 66 60 88 84 56 52 56 53 48 47 86 73 72 55 44 50 60 57 62 44 46
68 360 41 5 1 33 30 17 1 39 65 37 80 69 16 15 67 55 51 326 347 343 340 340 36 36 79 57 46 33 18 24 83 90 46 77 103 101 79 71 65 43 359 88 64 59 48 32 38 41 42 55 32 6
68 332 58 359 357 53 350 55 30 8 0 67 42 1 33 76 71 70 269 260 295 344 337 341 336 54 50 35 39 25 357 340 63 79 38 5 33 117 125 123 114 62 37 48 116 68 41 30 32 16 359 353 335 335
53 342 337 82 117 39 36 12 358 57 53 38 336 349 46 71 92 259 226 55 101 354 16 340 353 54 95 103 83 26 16 20 54 88 99 64 62 27 67 113 122 143 100 14 125 154 209 311 301 293 286 292 252 246
104 36 46 322 37 43 92 38 35 24 354 333 286 34 75 140 170 1 27 64 92 100 82 36 39 41 52 62 50 69 73 75 101 127 145 106 69 50 52 62 21 15 11 302 258 221 204 227 248 260 255 269 279 236
34 354 67 21 27 45 50 60 283 262 297 321 12 91 132 45 239 300 13 63 114 106 77 69 46 48 111 95 81 42 251 198 189 57 22 331 321 262 181 345 325 320 303 290 282 266 233 228 237 246 255 252 262 261
336 48 89 51 56 42 313 182 287 284 256 334 168 117 80 15 314 303 279 40 107 111 116 82 339 41 61 322 342 310 245 287 266 178 191 236 235 240 232 267 264 247 223 226 272 296 318 352 336 330 308 296 291 296
307 0 60 47 71 302 306 309 268 254 4 40 12 75 80 320 282 201 201 168 145 133 164 215 256 218 182 217 192 292 302 231 230 240 235 244 247 243 245 244 238 238 265 282 283 260 259 261 254 283 292 289 287 283
14 38 20 63 7 345 2 14 353 29 352 37 12 7 359 34 333 248 172 141 156 208 231 181 181 256 207 224 234 244 237 239 219 228 234 235 243 246 247 258 246 228 233 241 239 240 247 263 276 275 278 278 277 276
23 26 51 45 12 0 0 6 23 359 23 26 356 352 284 230 234 263 287 211 181 186 201 208 218 218 216 216 223 237 230 229 244 263 262 256 249 250 241 222 218 219 234 246 256 254 260 260 266 268 269 270 274 275